Temperature
20 20 20 20 24 26 25 25 26 25 26 25 24 24 24 23 23 22 19 18 19 19 18 19 19 19 19 19 19 19 19 19 19 19 19 19 19 19 19 19 19 19 19 19 19 19 19 19 19
20 20 20 22 26 26 25 25 25 25 25 24 24 24 24 22 20 20 19 18 18 18 18 18 19 19 19 19 19 19 19 19 19 19 19 19 19 19 19 19 19 19 19 19 18 18 18 18 18
20 20 22 26 26 26 25 25 25 25 24 24 24 23 22 20 19 18 18 18 18 18 18 18 19 18 18 18 18 18 18 19 19 19 19 19 19 19 19 19 19 19 19 19 19 18 18 18 18
20 21 24 26 25 25 24 25 25 25 24 24 24 23 20 18 18 18 18 18 18 18 18 18 18 18 18 18 18 18 18 18 18 18 18 18 19 19 19 19 19 19 19 19 19 18 18 18 18
21 24 26 25 25 24 24 24 25 25 24 23 24 22 19 17 17 18 18 18 18 18 18 18 18 18 18 18 18 18 18 18 18 18 18 18 18 18 18 18 19 19 19 19 18 18 18 18 18
23 26 26 26 25 24 24 23 24 24 23 23 23 22 18 17 17 18 18 18 18 18 18 18 18 18 18 18 18 18 18 18 18 18 18 18 18 18 18 18 18 18 18 18 18 18 18 18 18
24 26 26 26 25 24 24 23 23 24 23 21 21 21 18 17 17 17 18 18 18 18 18 17 18 18 18 18 18 18 18 18 18 18 18 18 18 18 18 18 18 18 18 18 18 18 18 18 18
24 27 26 26 25 24 23 22 21 22 21 20 20 21 18 17 16 17 17 17 17 17 17 17 17 17 17 17 17 17 17 18 18 18 18 18 18 17 17 18 18 18 18 18 18 18 18 18 18
23 27 26 26 25 24 23 23 21 20 20 19 19 18 17 16 17 17 17 17 17 17 17 17 17 17 17 17 17 17 17 17 18 18 18 18 17 17 17 17 17 18 18 18 18 18 18 18 18
25 27 26 25 25 24 23 23 21 21 21 20 19 17 17 17 17 17 17 17 17 16 16 16 16 16 16 17 17 17 17 17 17 17 17 17 17 17 17 17 18 18 18 18 18 18 18 18 17
26 26 24 23 23 23 22 21 21 22 22 20 19 18 17 17 17 17 17 16 16 16 16 16 16 16 16 16 16 16 17 17 17 17 17 17 17 17 17 17 17 18 17 18 17 18 17 17 17
25 23 23 22 21 22 22 21 21 21 20 19 18 18 18 18 17 17 17 16 16 15 15 15 15 15 15 15 15 16 16 16 16 17 17 17 17 17 17 17 17 17 17 17 17 17 17 17 18
25 23 22 21 21 21 21 21 20 19 18 18 17 17 17 17 17 16 16 16 16 15 14 14 14 14 14 14 15 15 15 15 16 16 16 16 17 17 17 17 17 17 17 17 17 17 17 17 17
24 23 22 21 21 21 21 20 20 19 18 18 17 17 17 17 16 16 16 16 15 15 14 14 14 13 14 14 14 14 14 15 15 15 15 16 16 16 16 17 17 17 17 17 17 17 17 17 17
23 23 23 22 22 21 21 22 21 19 18 18 18 18 17 17 16 16 16 15 15 14 14 13 13 13 13 13 13 14 14 14 14 14 15 15 15 16 16 16 17 17 17 17 17 17 17 17 17
24 25 24 23 22 21 22 23 21 18 19 19 18 18 17 16 17 16 15 15 14 14 14 13 13 13 13 13 13 13 13 13 14 14 14 14 15 15 15 16 16 17 17 17 17 17 17 17 17
25 26 25 24 22 22 22 23 21 19 19 19 19 19 18 17 17 16 15 15 14 13 13 13 13 13 13 13 13 13 13 13 13 13 14 14 14 15 15 15 16 16 16 17 17 17 17 17 17
26 26 26 25 23 22 22 23 21 19 19 19 19 18 18 18 17 16 15 14 14 13 13 13 13 13 13 13 13 13 13 13 13 13 13 13 14 14 14 15 15 15 16 16 16 16 17 17 17
26 26 25 24 23 22 23 23 22 20 19 19 19 18 18 17 17 16 15 14 14 13 13 13 13 13 12 13 13 13 13 13 13 13 13 13 13 14 14 14 14 15 15 16 16 16 16 17 17
26 25 25 23 22 22 23 23 23 21 20 19 19 19 18 17 17 16 15 15 14 14 13 13 13 13 12 12 12 12 12 12 12 13 13 13 13 13 13 14 14 15 15 15 15 16 16 16 16
25 25 24 23 22 22 22 23 22 21 20 19 18 18 18 17 17 16 15 15 14 14 13 13 13 12 12 12 12 12 12 12 12 13 13 13 13 13 13 14 14 14 14 15 15 15 15 16 16
24 23 23 22 23 23 22 23 23 22 21 20 19 18 18 17 16 16 15 15 14 14 13 13 13 12 12 12 12 12 12 12 12 12 12 13 13 13 13 13 13 14 14 14 15 15 15 15 15
23 22 22 22 23 23 23 23 24 22 22 22 20 19 18 17 16 15 15 14 14 13 13 13 12 12 12 11 11 11 12 12 12 12 12 12 12 13 13 13 13 13 14 14 14 15 15 15 15
22 22 22 22 23 23 23 23 23 23 22 22 20 19 18 17 16 16 15 14 14 14 13 13 12 12 12 11 11 11 11 11 12 12 12 12 12 12 12 13 13 13 13 13 14 14 14 15 15
23 23 23 23 23 23 22 22 23 23 22 21 20 19 18 17 16 16 15 15 14 14 13 13 13 12 12 11 11 11 11 11 11 11 11 12 12 12 12 12 12 13 13 13 13 14 14 14 14
23 23 23 23 24 24 22 23 24 22 20 19 19 19 18 17 16 16 15 15 14 14 14 13 13 12 12 11 11 11 11 11 11 11 11 11 11 11 12 12 12 12 13 13 13 13 14 14 14
23 23 23 23 23 23 24 24 24 22 21 20 19 18 18 17 16 16 15 15 15 14 14 13 13 13 12 12 11 11 11 11 11 11 11 11 11 11 11 11 12 12 12 13 13 13 13 13 13
22 22 22 22 23 23 23 23 24 23 22 22 20 19 18 17 17 16 16 15 15 14 14 14 13 13 12 12 11 11 11 11 10 10 10 11 11 11 11 11 11 11 12 12 12 12 13 13 13
21 21 22 22 22 22 23 24 23 23 22 22 21 19 18 17 17 16 16 15 15 15 14 14 14 13 13 12 12 11 11 11 10 10 10 10 10 10 10 10 11 11 11 11 12 12 12 12 13
22 22 22 22 22 21 22 23 23 22 21 20 20 19 18 17 16 16 16 15 15 15 15 14 14 13 13 12 12 11 11 11 11 11 10 10 10 10 10 10 10 10 11 11 11 11 12 12 12
Wind_Speed
11 9 5 3 4 3 8 6 6 6 5 7 6 4 6 8 6 5 4 4 3 6 8 9 7 6 6 6 6 6 6 6 6 5 5 5 4 4 3 3 3 3 2 2 2 2 2 2 2
9 6 4 3 1 4 7 6 8 9 6 3 5 5 7 8 8 5 5 3 3 5 5 5 6 4 5 6 6 6 6 6 6 6 6 6 5 5 4 4 4 3 3 2 2 2 1 1 1
8 4 3 1 3 5 5 6 6 6 7 4 4 6 6 6 7 6 5 3 3 4 3 4 2 1 2 4 4 5 6 6 7 7 7 7 6 6 6 5 5 4 4 3 3 2 2 2 1
4 3 2 2 6 5 5 5 5 3 6 7 4 7 6 7 6 6 6 5 4 3 3 5 5 5 4 4 5 6 6 7 8 8 8 8 8 8 7 7 6 6 5 5 4 3 3 2 2
3 3 1 3 4 4 4 5 6 6 4 7 6 7 6 8 9 8 8 7 6 5 6 7 10 10 9 8 7 7 8 8 9 9 10 10 10 9 9 8 8 7 6 5 5 4 4 4 3
2 2 1 2 4 4 4 4 4 6 6 6 5 6 6 8 10 9 10 10 9 8 8 9 11 11 12 11 10 9 9 10 10 11 11 11 11 11 10 10 9 8 7 6 6 5 5 4 4
3 1 1 2 4 4 3 3 5 4 6 7 4 4 5 10 9 8 9 8 8 9 8 9 10 10 10 11 11 11 11 10 10 11 12 12 12 12 12 11 11 10 9 8 7 6 6 5 4
3 2 1 1 2 3 4 3 4 5 5 5 5 4 5 6 6 7 8 8 8 8 7 7 7 8 9 10 9 11 11 11 10 11 11 12 12 13 13 13 13 12 11 10 9 8 7 7 6
3 3 1 1 1 4 5 4 4 4 7 7 7 8 7 5 5 6 7 8 8 8 7 7 7 7 8 8 8 8 8 8 8 9 10 10 11 12 11 13 11 12 12 12 11 10 9 8 8
3 2 2 2 1 5 6 4 5 5 6 8 9 9 7 6 6 7 8 9 9 9 9 7 7 7 7 7 7 6 7 7 7 7 8 8 8 9 11 9 10 12 13 13 13 11 11 12 10
1 1 4 3 3 6 6 5 3 5 3 4 6 7 6 6 6 7 8 8 9 9 10 9 9 9 9 7 7 6 6 6 7 7 7 8 8 8 9 8 8 11 13 12 12 13 12 11 8
4 4 4 6 5 4 5 5 4 2 5 6 7 6 5 5 6 8 8 9 9 10 11 11 11 10 10 9 8 8 7 7 7 8 9 8 6 6 6 6 8 8 8 9 9 8 10 10 9
5 6 5 6 6 5 6 5 5 6 7 8 7 6 5 5 6 7 8 9 10 11 11 11 11 11 10 9 8 8 7 8 8 8 8 9 7 7 6 6 7 8 9 8 7 8 8 8 8
6 9 8 6 6 5 6 6 5 6 8 8 6 5 4 4 5 7 9 10 11 11 12 11 11 11 11 9 9 8 8 8 8 8 8 9 8 7 7 7 7 7 8 8 7 8 7 7 6
9 8 6 5 4 4 5 4 4 8 9 7 5 4 2 3 5 7 9 11 12 12 12 11 11 11 11 11 10 8 8 8 7 7 8 9 9 8 7 7 7 7 8 8 7 8 7 7 7
6 5 4 5 5 4 6 5 6 9 9 7 5 3 1 2 5 7 9 10 11 11 11 11 10 11 11 10 9 8 8 8 7 7 8 8 9 9 8 7 7 7 7 6 6 6 7 7 7
6 5 5 4 6 5 6 5 6 9 9 7 6 3 2 2 4 7 8 10 10 10 11 11 11 11 11 11 9 8 7 7 7 7 6 8 9 9 8 7 7 7 6 7 7 8 7 7 7
5 6 5 3 4 7 8 6 5 9 9 8 6 5 3 4 5 7 8 8 8 9 10 10 11 11 11 9 8 7 7 6 6 6 6 8 8 8 8 7 8 7 7 7 7 8 8 7 7
2 5 5 1 1 5 8 9 6 8 10 9 8 6 5 4 4 6 6 7 8 9 10 10 11 11 10 9 9 8 8 7 7 6 8 8 8 8 7 7 7 7 7 8 8 8 9 7 7
2 4 3 2 1 4 7 9 6 8 11 10 9 8 6 4 4 5 6 7 8 9 9 10 11 11 10 9 8 8 8 7 7 7 7 8 8 8 7 7 7 7 7 8 8 8 7 7 8
1 3 3 2 2 4 6 6 5 6 9 9 9 9 7 5 5 5 6 7 7 8 9 9 10 10 10 10 8 8 7 6 7 8 7 8 8 7 7 7 6 6 7 7 8 8 10 8 8
1 2 1 2 5 2 3 3 3 3 7 10 11 10 8 5 4 4 5 6 8 8 8 9 9 9 9 9 9 9 8 7 8 8 7 8 8 8 8 7 6 6 6 7 8 8 8 9 8
3 3 1 3 5 5 4 5 1 2 4 5 8 9 8 6 4 4 5 6 7 7 7 7 7 7 8 8 8 8 8 7 7 7 8 8 7 8 9 8 7 6 5 6 7 8 9 8 9
5 4 3 4 5 4 1 4 2 1 2 2 2 6 8 6 5 4 4 5 6 6 6 6 6 7 7 7 7 8 9 9 9 9 9 8 7 7 10 9 7 7 6 6 6 7 9 9 10
5 5 4 5 4 1 2 4 3 2 2 4 3 3 5 6 5 4 4 5 6 6 6 6 6 6 6 7 7 7 8 8 8 9 8 8 8 7 10 9 8 7 7 7 6 7 7 8 10
2 5 4 3 2 0 3 4 1 1 2 3 4 4 5 6 6 5 5 5 5 6 6 6 6 6 6 6 7 7 7 6 6 7 8 8 7 8 10 10 9 9 8 7 6 6 6 7 8
2 2 3 4 3 3 2 2 2 2 3 4 5 5 6 6 6 6 5 5 5 6 6 5 6 5 5 5 6 6 7 7 7 7 7 7 7 8 10 9 9 9 9 8 8 6 6 7 7
2 1 3 3 3 2 2 3 1 1 2 2 4 6 7 7 7 6 5 5 5 6 6 6 5 5 5 5 5 5 6 6 6 7 8 9 9 8 9 9 9 9 8 8 7 7 6 7 6
4 3 3 3 3 3 2 1 2 2 3 5 4 4 6 7 8 7 6 6 5 6 6 6 5 5 5 5 5 5 5 6 6 6 7 8 8 8 8 9 9 9 9 9 7 7 7 7 7
3 3 4 4 2 3 3 1 3 3 5 6 7 5 5 7 8 7 7 7 6 6 6 6 5 5 4 4 5 5 5 6 6 6 7 8 8 8 8 8 9 9 9 9 9 8 8 7 8
Wind_Direction
176 175 189 211 228 110 68 49 40 44 49 45 42 44 53 43 25 45 52 84 122 150 152 155 164 169 174 179 186 191 194 193 193 196 197 197 195 194 197 203 211 212 207 200 195 185 160 137 111
166 166 205 235 255 90 73 50 48 43 34 32 47 45 62 58 41 44 51 68 123 143 152 148 140 184 192 197 200 202 203 206 207 210 211 211 211 211 214 216 221 224 222 217 217 219 209 189 154
164 202 236 231 60 59 72 48 39 51 42 36 63 50 48 36 17 20 25 66 112 122 126 96 84 241 238 231 226 223 220 221 222 223 222 221 221 222 224 226 230 231 232 231 231 238 238 227 218
181 214 227 104 86 67 57 41 20 58 57 39 65 75 73 36 10 20 40 59 87 84 53 52 26 355 325 293 271 257 247 241 238 235 233 230 227 226 228 231 235 236 237 237 238 248 249 243 239
228 244 175 106 102 100 70 37 37 54 62 45 61 88 72 30 34 42 46 46 49 43 28 28 26 9 352 332 310 289 271 259 253 248 244 239 234 231 230 233 236 238 240 241 241 246 251 248 246
235 249 215 106 118 120 96 50 50 56 70 52 53 88 72 37 36 43 50 47 45 42 32 27 31 21 9 358 343 327 308 287 271 262 256 250 242 237 232 233 235 237 238 241 243 242 248 246 246
274 267 11 110 143 143 109 66 43 38 61 43 19 87 91 45 42 49 55 56 51 44 38 25 16 9 4 358 354 349 336 320 301 283 268 259 253 246 238 234 233 235 236 237 240 240 241 243 244
270 250 146 171 177 140 125 105 64 34 62 46 28 70 72 49 57 64 62 56 50 42 35 26 13 3 354 342 342 343 338 331 322 303 286 268 259 252 244 240 232 234 236 235 235 236 237 239 239
246 246 255 187 190 134 147 134 93 77 84 74 69 74 82 84 78 64 55 47 39 30 20 13 2 352 339 325 327 327 322 323 318 304 295 276 260 256 247 242 234 234 238 237 234 232 233 235 223
232 277 51 66 74 137 146 135 129 131 109 99 96 92 94 88 70 54 40 28 20 12 6 1 349 338 326 318 315 307 302 299 295 294 298 287 268 263 259 257 242 242 242 240 236 233 230 233 221
204 66 105 105 104 134 142 134 138 158 116 112 119 111 98 80 60 46 33 20 8 358 357 352 343 336 330 321 311 304 295 288 280 276 275 277 270 258 252 254 247 244 240 238 226 223 230 227 225
118 90 109 122 123 141 143 137 128 94 100 114 114 111 99 72 49 32 20 9 359 356 351 346 341 335 331 325 318 303 296 292 287 281 279 274 265 257 250 244 250 251 248 243 240 233 227 236 228
131 126 112 117 122 125 129 131 125 116 120 123 123 117 92 63 41 27 11 2 356 352 347 348 341 336 333 326 314 308 304 297 291 281 275 271 267 261 254 250 242 241 243 241 238 238 235 238 249
127 128 128 129 134 143 143 136 145 138 145 143 141 128 95 59 28 10 5 358 353 350 348 347 341 339 334 328 321 316 309 299 293 286 278 274 267 262 261 255 245 236 236 241 241 238 233 231 239
134 132 139 156 160 157 173 177 174 154 164 163 162 141 102 45 16 6 2 354 353 349 348 351 341 342 338 334 328 317 311 306 301 294 287 278 271 267 260 261 253 240 233 236 240 241 233 223 216
162 181 200 174 184 178 228 259 155 168 182 184 189 170 153 22 360 3 359 354 354 352 350 351 348 345 343 339 329 322 317 314 305 300 295 289 279 272 269 263 259 249 238 230 228 233 228 220 209
199 246 266 182 195 200 232 271 160 182 198 205 210 217 250 334 356 2 357 356 355 352 348 351 354 348 347 342 333 327 324 320 314 310 306 301 292 282 272 268 266 256 242 233 230 226 227 222 213
248 270 278 260 185 222 242 258 188 195 213 223 223 237 257 313 351 358 357 356 352 352 350 354 355 353 350 347 342 341 338 334 332 327 324 318 306 296 285 271 266 262 250 238 233 234 227 223 213
274 273 286 342 154 241 257 266 237 204 216 226 231 239 260 298 341 355 353 351 351 355 353 355 356 357 356 354 351 348 346 342 345 343 341 328 319 310 292 283 276 268 258 251 240 236 229 221 211
215 272 284 159 143 263 278 273 257 220 225 234 241 244 252 279 319 344 348 353 351 351 350 353 358 358 357 356 347 342 341 339 347 344 343 342 334 324 307 292 280 268 262 257 248 237 235 224 207
192 300 304 276 198 226 285 262 216 216 226 233 240 247 251 269 307 331 341 346 341 346 349 348 353 353 358 356 351 349 353 348 358 355 353 350 348 342 328 314 299 283 269 261 255 245 237 232 219
187 92 180 230 260 265 284 297 168 199 227 234 235 234 240 247 277 308 324 336 339 345 344 343 351 355 358 355 360 358 358 356 352 348 351 353 3 2 352 336 321 301 283 273 264 254 248 242 233
95 113 197 250 267 271 226 272 169 172 252 245 235 231 233 238 257 286 311 326 332 336 339 340 346 351 357 357 359 353 1 355 353 354 359 2 7 6 3 351 340 326 306 289 276 269 257 246 240
135 160 173 216 245 250 207 272 274 180 313 320 236 224 223 228 239 265 295 312 324 333 338 340 343 349 353 351 355 360 356 354 357 359 359 357 0 1 6 356 350 341 329 311 293 277 264 255 249
204 244 239 218 217 215 125 262 276 30 306 281 273 233 215 221 235 256 282 307 323 331 336 335 339 346 349 350 352 355 353 349 355 354 355 352 353 356 357 353 349 345 335 323 309 288 275 262 256
215 263 281 292 296 206 201 251 339 76 277 259 248 239 218 219 232 252 273 292 307 319 323 325 330 335 344 346 349 350 348 343 349 350 346 348 348 349 349 348 346 344 339 329 320 301 289 277 265
201 224 330 289 288 268 214 250 263 177 237 236 238 231 227 224 229 245 264 280 299 311 314 309 310 320 332 339 342 345 346 344 342 339 341 344 346 344 346 344 344 346 342 336 327 314 307 294 277
351 155 218 254 280 276 239 242 301 252 311 263 246 240 234 229 231 242 255 267 288 300 300 297 291 302 313 322 333 337 339 341 336 333 342 341 342 344 343 345 345 346 343 340 334 320 316 304 289
170 195 232 253 273 291 305 101 71 314 317 306 292 259 238 228 231 240 251 266 284 291 290 291 286 289 300 307 320 322 334 335 333 336 339 335 336 340 344 345 344 346 345 342 338 333 326 313 302
238 237 230 260 243 266 285 281 119 264 292 288 283 264 235 226 228 237 248 261 275 287 293 296 290 283 287 292 302 311 325 324 328 336 336 334 338 338 339 342 341 346 345 343 340 333 328 322 315
Height
1547 1548 1548 1550 1548 1542 1547 1547 1543 1543 1543 1545 1545 1544 1544 1547 1549 1556 1557 1554 1556 1557 1557 1557 1557 1558 1559 1559 1560 1560 1560 1560 1560 1560 1560 1560 1559 1559 1559 1559 1559 1559 1559 1558 1558 1558 1558 1558 1558
1548 1548 1550 1550 1542 1547 1552 1547 1546 1547 1547 1547 1547 1546 1547 1551 1554 1556 1556 1556 1557 1558 1559 1559 1558 1559 1560 1560 1560 1560 1560 1560 1560 1560 1559 1559 1559 1559 1559 1558 1558 1558 1558 1558 1558 1558 1558 1558 1558
1548 1548 1551 1545 1544 1549 1552 1548 1547 1548 1549 1548 1548 1550 1552 1557 1558 1558 1558 1558 1559 1559 1560 1559 1559 1559 1560 1560 1560 1560 1559 1559 1559 1559 1559 1558 1558 1558 1558 1558 1558 1557 1557 1557 1557 1557 1557 1557 1557
1548 1550 1549 1544 1549 1550 1550 1549 1549 1548 1550 1550 1549 1553 1557 1561 1560 1559 1559 1559 1560 1560 1560 1559 1559 1559 1559 1559 1559 1559 1558 1558 1558 1558 1557 1557 1557 1557 1557 1557 1556 1556 1556 1556 1556 1556 1556 1556 1556
1549 1549 1545 1548 1550 1550 1551 1552 1551 1550 1551 1552 1551 1555 1560 1562 1561 1560 1560 1560 1560 1560 1560 1559 1558 1558 1558 1558 1558 1557 1557 1556 1556 1556 1556 1556 1555 1555 1555 1555 1555 1555 1555 1555 1555 1555 1555 1555 1556
1550 1546 1546 1550 1550 1551 1552 1554 1553 1552 1554 1555 1555 1557 1563 1564 1562 1561 1560 1560 1559 1559 1558 1558 1557 1557 1557 1556 1556 1556 1555 1555 1555 1554 1554 1554 1554 1553 1553 1553 1554 1554 1554 1554 1554 1554 1554 1554 1554
1550 1545 1546 1546 1550 1552 1554 1555 1555 1555 1555 1558 1558 1559 1564 1564 1563 1562 1561 1560 1559 1559 1558 1557 1556 1556 1555 1554 1554 1553 1553 1553 1553 1552 1552 1552 1552 1552 1551 1552 1552 1552 1552 1552 1552 1552 1552 1553 1553
1549 1546 1547 1547 1550 1552 1555 1557 1558 1558 1559 1561 1561 1561 1565 1566 1564 1563 1562 1561 1560 1559 1558 1556 1555 1554 1553 1552 1552 1551 1550 1550 1550 1549 1550 1549 1549 1549 1549 1549 1549 1550 1550 1550 1550 1551 1551 1551 1551
1549 1546 1548 1547 1549 1551 1555 1556 1559 1561 1561 1562 1563 1564 1566 1566 1565 1565 1564 1563 1562 1560 1558 1556 1555 1553 1552 1551 1550 1549 1548 1547 1547 1546 1546 1547 1546 1547 1547 1547 1547 1547 1548 1548 1549 1549 1549 1550 1550
1548 1545 1547 1549 1549 1551 1555 1556 1559 1560 1561 1563 1565 1566 1567 1567 1567 1566 1565 1564 1562 1561 1559 1556 1554 1552 1550 1548 1547 1546 1545 1544 1543 1543 1543 1543 1543 1543 1544 1544 1544 1545 1545 1546 1546 1547 1547 1548 1550
1546 1546 1549 1552 1553 1554 1556 1558 1560 1560 1561 1564 1566 1567 1568 1568 1567 1567 1565 1564 1562 1560 1558 1556 1553 1551 1549 1547 1545 1543 1542 1540 1540 1539 1539 1539 1540 1539 1540 1540 1540 1541 1542 1543 1544 1544 1545 1547 1549
1548 1551 1552 1554 1555 1556 1557 1559 1560 1561 1564 1566 1567 1568 1568 1568 1568 1567 1565 1564 1562 1559 1557 1554 1551 1549 1547 1544 1542 1540 1539 1537 1537 1536 1536 1536 1536 1536 1536 1536 1537 1538 1539 1540 1541 1542 1543 1545 1547
1548 1552 1555 1556 1557 1558 1558 1560 1561 1564 1565 1566 1567 1568 1568 1568 1568 1566 1565 1563 1561 1558 1555 1552 1549 1546 1544 1541 1538 1537 1536 1534 1533 1532 1531 1532 1532 1532 1532 1533 1533 1534 1535 1536 1537 1538 1540 1542 1543
1549 1552 1555 1557 1558 1559 1559 1561 1562 1564 1566 1567 1568 1568 1568 1568 1567 1566 1564 1562 1560 1557 1554 1551 1547 1545 1542 1539 1537 1534 1532 1530 1529 1528 1528 1527 1528 1528 1528 1529 1529 1530 1531 1532 1534 1535 1536 1537 1539
1551 1553 1555 1557 1557 1559 1560 1559 1560 1563 1565 1567 1567 1568 1568 1568 1567 1566 1564 1561 1559 1556 1553 1550 1546 1543 1540 1537 1534 1532 1530 1528 1526 1525 1525 1524 1524 1524 1524 1525 1525 1526 1527 1528 1529 1530 1532 1533 1535
1549 1549 1552 1554 1556 1558 1560 1555 1560 1563 1564 1565 1566 1567 1568 1567 1566 1565 1563 1561 1558 1555 1552 1549 1545 1542 1539 1535 1532 1530 1528 1526 1524 1523 1522 1521 1521 1521 1520 1520 1521 1522 1523 1524 1525 1526 1528 1529 1531
1546 1547 1547 1551 1554 1556 1556 1553 1559 1562 1563 1564 1565 1566 1566 1566 1566 1564 1562 1560 1557 1554 1551 1549 1545 1541 1538 1534 1531 1528 1526 1524 1522 1520 1519 1518 1518 1517 1517 1517 1517 1518 1518 1519 1521 1522 1524 1525 1527
1543 1542 1544 1547 1551 1554 1553 1552 1557 1561 1562 1562 1564 1564 1565 1565 1565 1563 1562 1559 1557 1554 1551 1548 1545 1541 1537 1534 1531 1528 1525 1523 1521 1519 1517 1515 1514 1514 1514 1513 1514 1514 1514 1515 1516 1518 1520 1521 1523
1539 1541 1544 1548 1552 1553 1551 1550 1552 1558 1560 1561 1562 1563 1563 1564 1564 1562 1561 1559 1556 1554 1551 1548 1545 1541 1538 1534 1531 1527 1525 1522 1520 1517 1515 1513 1512 1511 1511 1510 1510 1510 1511 1512 1513 1514 1515 1517 1519
1540 1543 1545 1551 1553 1552 1549 1549 1549 1554 1557 1558 1559 1560 1561 1562 1562 1561 1560 1558 1556 1553 1551 1548 1545 1541 1538 1534 1531 1528 1525 1522 1519 1516 1514 1512 1510 1509 1508 1507 1507 1507 1507 1508 1509 1510 1511 1513 1515
1544 1545 1547 1550 1553 1553 1552 1546 1547 1551 1554 1556 1558 1558 1559 1560 1560 1560 1559 1557 1555 1553 1550 1548 1544 1541 1538 1535 1531 1528 1525 1522 1519 1516 1513 1511 1509 1507 1506 1505 1504 1504 1504 1505 1505 1506 1507 1509 1510
1547 1549 1550 1552 1552 1548 1553 1549 1543 1545 1550 1552 1554 1556 1557 1558 1559 1558 1558 1556 1554 1552 1549 1547 1544 1541 1538 1535 1531 1528 1525 1522 1519 1516 1513 1511 1508 1506 1504 1503 1502 1501 1501 1501 1502 1503 1503 1504 1505
1548 1551 1551 1551 1550 1549 1549 1550 1540 1545 1545 1546 1549 1552 1555 1556 1557 1557 1556 1555 1553 1551 1548 1546 1543 1540 1537 1534 1531 1529 1526 1523 1520 1517 1514 1511 1509 1506 1503 1502 1500 1499 1498 1498 1498 1498 1499 1500 1501
1551 1551 1551 1550 1548 1552 1548 1550 1544 1539 1542 1544 1547 1550 1552 1554 1555 1555 1555 1554 1552 1550 1548 1545 1542 1540 1537 1534 1532 1529 1526 1523 1521 1518 1515 1512 1509 1506 1504 1501 1499 1498 1497 1496 1495 1495 1495 1496 1497
1549 1549 1551 1551 1551 1548 1549 1551 1543 1538 1542 1544 1546 1548 1550 1552 1553 1553 1553 1552 1551 1549 1547 1545 1542 1539 1537 1534 1532 1529 1526 1523 1521 1518 1515 1512 1510 1507 1504 1501 1499 1497 1495 1494 1493 1492 1492 1492 1492
1547 1546 1552 1554 1550 1546 1549 1546 1537 1540 1543 1545 1546 1547 1548 1550 1551 1552 1551 1551 1550 1548 1546 1544 1541 1539 1536 1534 1531 1529 1526 1523 1521 1518 1515 1513 1510 1507 1503 1501 1498 1496 1494 1492 1491 1490 1489 1488 1488
1547 1546 1547 1547 1549 1549 1540 1539 1535 1539 1541 1543 1544 1546 1547 1548 1549 1550 1550 1549 1548 1547 1545 1543 1540 1538 1536 1533 1531 1528 1526 1523 1520 1517 1515 1512 1509 1506 1503 1500 1498 1495 1493 1491 1489 1488 1486 1485 1485
1548 1548 1549 1550 1552 1548 1544 1541 1538 1535 1536 1539 1541 1543 1544 1546 1547 1547 1547 1547 1546 1545 1543 1541 1539 1537 1535 1533 1530 1527 1525 1522 1519 1517 1514 1512 1509 1505 1503 1500 1498 1495 1492 1490 1488 1486 1484 1483 1482
1552 1552 1550 1548 1550 1552 1550 1542 1533 1535 1536 1537 1539 1540 1542 1543 1544 1545 1545 1545 1544 1543 1541 1540 1538 1536 1534 1532 1529 1527 1524 1521 1519 1516 1513 1510 1508 1506 1503 1500 1497 1495 1492 1489 1487 1485 1483 1481 1480
1547 1547 1548 1549 1548 1550 1550 1544 1534 1536 1537 1538 1538 1538 1539 1540 1541 1542 1543 1543 1542 1541 1540 1538 1537 1535 1532 1530 1528 1526 1523 1521 1519 1516 1513 1510 1507 1505 1502 1499 1497 1494 1491 1488 1486 1483 1481 1479 1478